View from above orbital plane
|
View from above satellite
|
Ground track
|
The orbit data is extracted from the following two-line orbital elements,
1 36501U 10010C 21055.61390891 .00001292 00000-0 21311-3 0 9992
2 36501 49.6019 170.8222 4890331 99.4464 316.9473 5.80291042228828
Epoch (UTC): | 24 February 2021 14:44:01 |
Eccentricity: | 0.4890331 |
inclination: | 49.6019° |
perigee height: | 306 km |
apogee height: | 13099 km |
right ascension of ascending node: | 170.8222° |
argument of perigee: | 99.4464° |
revolutions per day: | 5.80291042 |
mean anomaly at epoch: | 316.9473° |
orbit number at epoch: | 22882 |
The dashed part of the orbit path shows where the satellite is in the earth's shadow,
|
|